Prague, Czech Republic

6:00 PM CEST on April 24, 2017 (GMT +0200)
Prague-Ruzyne Airport

Weather History for LKPR - April, 2013

Change the Weather History Date:

Thursday, April 18, 2013

  Actual Average Record
Temperature  
Mean Temperature 64 °F -  
Max Temperature 78 °F 61 °F 78 °F (2013)
Min Temperature 50 °F 41 °F 30 °F (2008)
Degree Days  
Heating Degree Days 1    
Growing Degree Days 14 (Base 50)    
Moisture  
Dew Point 49 °F    
Average Humidity 59    
Maximum Humidity 82    
Minimum Humidity 31    
Precipitation  
Precipitation 0.02 in 0.08 in - ()
Sea Level Pressure  
Sea Level Pressure 30.05 in    
Wind  
Wind Speed 8 mph ()    
Max Wind Speed 17 mph    
Max Gust Speed -    
Visibility 8.7 miles    
Events Thunderstorm    
Averages and records for this station are not official NWS values.
T = Trace of Precipitation, MM = Missing Value Source: Averaged Metar Reports

Daily Weather History Graph

Daily Weather History Graph

Search for Another Location

Airport or City:

Trip Planner

Search our weather history database for the weather conditions in past years. The results will help you decide how hot, cold, wet, or windy it might be!

Date:

Astronomy

Apr. 18, 2013 Rise Set
Actual Time 6:03 AM CEST 8:01 PM CEST
Civil Twilight 5:29 AM CEST 8:36 PM CEST
Nautical Twilight 4:46 AM CEST 9:19 PM CEST
Astronomical Twilight 3:58 AM CEST 10:08 PM CEST
Moon 11:50 AM CEST (4/18) 2:15 AM CEST (4/18)
Length of Visible Light 15h 07m
Length of Day
13h 58m
Waxing Crescent, 49% of the Moon is Illuminated
Apr 18
Waxing Crescent
Apr 18
First Quarter
Apr 25
Full
May 2
Last Quarter
May 10
New

Hourly Weather History & Observations

Time (CEST) Temp. Dew Point Humidity Pressure Visibility Wind Dir Wind Speed Gust Speed Precip Events Conditions
12:00 AM 55.4 °F 46.4 °F 72% 30.15 in - SSE 6.9 mph - N/A   Clear
12:30 AM 55.4 °F 46.4 °F 72% 30.15 in - SSE 6.9 mph - N/A   Clear
1:00 AM 53.6 °F 46.4 °F 77% 30.15 in - SSE 6.9 mph - N/A   Clear
1:30 AM 55.4 °F 46.4 °F 72% 30.12 in - South 6.9 mph - N/A   Clear
2:00 AM 56 °F 46 °F 61% 30.14 in 22 mi South 6.7 mph - -   Clear
2:00 AM 55.4 °F 46.4 °F 72% 30.12 in - South 5.8 mph - N/A   Clear
2:30 AM 51.8 °F 44.6 °F 76% 30.12 in - SSE 6.9 mph - N/A   Clear
3:00 AM 53.6 °F 46.4 °F 77% 30.12 in - South 9.2 mph - N/A   Clear
3:30 AM 51.8 °F 44.6 °F 76% 30.12 in - South 9.2 mph - N/A   Clear
4:00 AM 53.6 °F 44.6 °F 72% 30.12 in - South 9.2 mph - N/A   Clear
4:30 AM 51.8 °F 44.6 °F 76% 30.12 in - South 8.1 mph - N/A   Clear
5:00 AM 53.6 °F 44.6 °F 72% 30.09 in - South 6.9 mph - N/A   Clear
5:30 AM 53.6 °F 44.6 °F 72% 30.09 in - South 5.8 mph - N/A   Clear
6:00 AM 51.8 °F 44.6 °F 76% 30.09 in - South 5.8 mph - N/A   Clear
6:30 AM 51.8 °F 44.6 °F 76% 30.09 in - South 6.9 mph - N/A   Clear
7:00 AM 51.8 °F 46.4 °F 82% 30.06 in - South 8.1 mph - N/A   Clear
7:30 AM 53.6 °F 46.4 °F 77% 30.06 in - South 8.1 mph - N/A   Clear
8:00 AM 57 °F 48 °F 64% 30.08 in 16 mi South 6.7 mph - -   Scattered Clouds
8:00 AM 57.2 °F 48.2 °F 72% 30.06 in - South 9.2 mph - N/A   Clear
8:30 AM 59.0 °F 50.0 °F 72% 30.06 in - South 9.2 mph - N/A   Clear
9:00 AM 60.8 °F 50.0 °F 68% 30.06 in - South 8.1 mph - N/A   Clear
9:30 AM 64.4 °F 50.0 °F 59% 30.06 in - South 10.4 mph - N/A   Clear
10:00 AM 66.2 °F 50.0 °F 56% 30.06 in - South 10.4 mph - N/A   Clear
10:30 AM 68.0 °F 48.2 °F 49% 30.06 in - South 9.2 mph - N/A   Clear
11:00 AM 69.8 °F 48.2 °F 46% 30.06 in - South 6.9 mph - N/A   Clear
11:30 AM 69.8 °F 48.2 °F 46% 30.06 in - South 5.8 mph - N/A   Clear
12:00 PM 71.6 °F 48.2 °F 43% 30.06 in - SSW 8.1 mph - N/A   Clear
12:30 PM 71.6 °F 50.0 °F 46% 30.04 in - SW 11.5 mph - N/A   Clear
1:00 PM 71.6 °F 48.2 °F 43% 30.04 in - SSW 6.9 mph - N/A   Clear
1:30 PM 73.4 °F 50.0 °F 44% 30.04 in - SSW 9.2 mph - N/A   Clear
2:00 PM 74 °F 50 °F 31% 29.97 in 25 mi South 6.7 mph - -   Scattered Clouds
2:00 PM 73.4 °F 50.0 °F 44% 30.01 in - South 8.1 mph - N/A   Clear
2:30 PM 75.2 °F 50.0 °F 41% 30.01 in 6.2 mi South 8.1 mph - N/A   Partly Cloudy
3:00 PM 77.0 °F 48.2 °F 36% 30.01 in - South 6.9 mph - N/A   Clear
3:30 PM 78.8 °F 48.2 °F 34% 29.98 in - South 4.6 mph - N/A   Clear
4:00 PM 77.0 °F 50.0 °F 39% 29.98 in - WSW 10.4 mph - N/A   Clear
4:30 PM 75.2 °F 50.0 °F 41% 29.98 in - WSW 13.8 mph - N/A   Clear
5:00 PM 77.0 °F 51.8 °F 41% 29.98 in - WSW 13.8 mph - N/A   Clear
5:30 PM 77.0 °F 53.6 °F 44% 29.98 in - WSW 16.1 mph - N/A   Clear
6:00 PM 77.0 °F 51.8 °F 41% 29.98 in - SW 15.0 mph - N/A   Clear
6:30 PM 75.2 °F 51.8 °F 44% 29.95 in - SW 15.0 mph - N/A   Clear
7:00 PM 73.4 °F 51.8 °F 47% 29.95 in 6.2 mi WSW 16.1 mph - N/A   Partly Cloudy
7:30 PM 71.6 °F 51.8 °F 50% 29.98 in 6.2 mi WSW 17.3 mph - N/A   Partly Cloudy
8:00 PM 70 °F 51 °F 40% 29.95 in 19 mi WSW 13.4 mph - -   Scattered Clouds
8:00 PM 69.8 °F 51.8 °F 53% 29.98 in - SW 11.5 mph - N/A   Clear
8:30 PM 68.0 °F 51.8 °F 56% 29.98 in 6.2 mi WSW 11.5 mph - N/A Thunderstorm Partly Cloudy
8:37 PM 66.2 °F 51.8 °F 60% 30.01 in 6.2 mi West 16.1 mph - N/A Thunderstorm Thunderstorm
9:00 PM 66.2 °F 50.0 °F 56% 30.01 in 6.2 mi WNW 11.5 mph - N/A   Partly Cloudy
9:30 PM 62.6 °F 50.0 °F 63% 30.01 in 6.2 mi WSW 4.6 mph - N/A   Partly Cloudy
10:00 PM 60.8 °F 50.0 °F 68% 30.01 in - SW 8.1 mph - N/A   Clear
10:30 PM 62.6 °F 50.0 °F 63% 30.01 in - West 10.4 mph - N/A   Clear
11:00 PM 59.0 °F 50.0 °F 72% 30.04 in - WNW 5.8 mph - N/A   Clear
11:30 PM 59.0 °F 51.8 °F 77% 30.04 in - NNW 5.8 mph - N/A   Clear